Location: Hamburg
(53.5500°N, 10.0000°E)
Time: 09:06:44
(UTC+01:00)

A-11 Canister half - All Passes

Search period start: 24 March 2017 00:00
Search period end: 03 April 2017 01:00
Orbit: 1527 x 1682 km, 47.3° (Epoch: 22 March)

Date Brightness Start Highest point End Pass type
(mag) Time Alt. Az. Time Alt. Az. Time Alt. Az.
24 Mar - 09:30:12 10° SSE 09:36:08 18° SE 09:42:00 10° E daylight
24 Mar - 11:30:01 10° SW 11:39:10 42° SSE 11:48:08 10° E daylight
24 Mar - 13:33:31 10° WSW 13:43:16 61° S 13:52:43 10° E daylight
24 Mar - 15:38:07 10° W 15:47:33 53° SSW 15:56:41 10° SE daylight
24 Mar - 17:43:19 10° W 17:51:02 28° SW 17:58:34 10° SSE daylight
25 Mar - 09:09:00 10° SSE 09:14:39 17° SE 09:20:14 10° E daylight
25 Mar - 11:08:30 10° SW 11:17:38 41° SSE 11:26:34 10° E daylight
25 Mar - 13:11:55 10° WSW 13:21:42 60° S 13:31:10 10° E daylight
25 Mar - 15:16:31 10° W 15:26:00 54° SSW 15:35:11 10° SE daylight
25 Mar - 17:21:40 10° W 17:29:32 29° SW 17:37:13 10° SSE daylight
26 Mar - 09:47:50 10° SSE 09:53:09 16° SE 09:58:25 10° E daylight
26 Mar - 11:47:01 10° SSW 11:56:05 40° SSE 12:04:58 10° E daylight
26 Mar - 13:50:20 10° WSW 14:00:07 60° S 14:09:37 10° E daylight
26 Mar - 15:54:54 10° W 16:04:27 55° SSW 16:13:40 10° ESE daylight
26 Mar - 18:00:01 10° W 18:08:02 30° SW 18:15:51 10° SSE daylight
27 Mar - 09:26:43 10° SSE 09:31:41 15° SE 09:36:35 10° E daylight
27 Mar - 11:25:31 10° SSW 11:34:32 39° SSE 11:43:22 10° E daylight
27 Mar - 13:28:45 10° WSW 13:38:32 60° S 13:48:03 10° E daylight
27 Mar - 15:33:17 10° W 15:42:53 56° SSW 15:52:10 10° ESE daylight
27 Mar - 17:38:22 10° W 17:46:32 31° SW 17:54:29 10° SSE daylight
28 Mar - 09:05:40 10° SSE 09:10:12 14° SE 09:14:42 10° E daylight
28 Mar - 11:04:02 10° SSW 11:13:00 38° SSE 11:21:47 10° E daylight
28 Mar - 13:07:10 10° WSW 13:16:58 59° S 13:26:29 10° E daylight
28 Mar - 15:11:41 10° W 15:21:19 56° SSW 15:30:39 10° ESE daylight
28 Mar - 17:16:42 10° W 17:25:01 32° SW 17:33:06 10° SSE daylight
29 Mar - 08:44:40 10° SSE 08:48:43 13° SE 08:52:45 10° E daylight
29 Mar - 10:42:35 10° SSW 10:51:27 37° SE 11:00:11 10° E daylight
29 Mar - 12:45:35 10° WSW 12:55:23 59° S 13:04:56 10° E daylight
29 Mar - 14:50:04 10° W 14:59:45 57° SSW 15:09:07 10° ESE daylight
29 Mar - 16:55:04 10° W 17:03:30 34° SW 17:11:43 10° SSE daylight
29 Mar - 19:04:17 10° WSW 19:05:57 11° WSW 19:07:36 10° SW daylight
30 Mar - 08:23:46 10° SE 08:27:14 12° ESE 08:30:42 10° ESE daylight
30 Mar - 10:21:06 10° SSW 10:29:55 36° SE 10:38:35 10° E daylight
30 Mar - 12:24:00 10° WSW 12:33:48 58° SSE 12:43:22 10° E daylight
30 Mar - 14:28:28 10° W 14:38:11 58° SSW 14:47:36 10° ESE daylight
30 Mar - 16:33:25 10° W 16:41:59 35° SW 16:50:18 10° SSE daylight
30 Mar - 18:41:45 10° WSW 18:44:30 11° WSW 18:47:13 10° SW daylight
31 Mar - 08:03:01 10° SE 08:05:46 11° ESE 08:08:30 10° ESE daylight
31 Mar - 09:59:39 10° SSW 10:08:22 34° SE 10:16:58 10° E daylight
31 Mar - 12:02:25 10° WSW 12:12:13 57° SSE 12:21:47 10° E daylight
31 Mar - 14:06:51 10° W 14:16:36 59° S 14:26:04 10° ESE daylight
31 Mar - 16:11:47 10° W 16:20:27 36° SW 16:28:53 10° SSE daylight
31 Mar - 18:19:34 10° WSW 18:23:02 12° WSW 18:26:30 10° SW daylight
01 Apr - 07:42:37 10° SE 07:44:17 10° ESE 07:45:58 10° ESE daylight
01 Apr - 09:38:13 10° SSW 09:46:50 33° SE 09:55:21 10° E daylight
01 Apr - 11:40:52 10° WSW 11:50:39 57° SSE 12:00:13 10° E daylight
01 Apr - 13:45:14 10° W 13:55:02 59° S 14:04:32 10° ESE daylight
01 Apr - 15:50:09 10° W 15:58:56 37° SW 16:07:27 10° SSE daylight
01 Apr - 17:57:31 10° W 18:01:35 13° SW 18:05:36 10° SSW daylight
02 Apr - 09:16:46 10° SSW 09:25:18 32° SE 09:33:44 10° E daylight
02 Apr - 11:19:17 10° WSW 11:29:04 56° SSE 11:38:39 10° E daylight
02 Apr - 13:23:38 10° W 13:33:27 60° S 13:43:00 10° ESE daylight
02 Apr - 15:28:31 10° W 15:37:24 39° SSW 15:46:02 10° SSE daylight
02 Apr - 17:35:33 10° W 17:40:07 14° SW 17:44:38 10° SSW daylight
